SCP
0 0 0 0 0 1 1 1 1 1 1 1 1 1 1 1 1 1 1 1 1 1 2 2 2 2 2 2 2 1 1 1 1 2 2 1 1 1 1 1 1 1 1
0 0 0 0 0 0 1 1 1 1 1 1 1 1 1 1 1 1 1 1 1 1 1 1 2 2 2 2 1 1 1 1 1 2 2 1 1 1 1 1 1 1 1
0 0 0 0 0 0 0 0 1 1 1 1 1 1 1 1 1 1 0 0 1 1 1 1 1 1 1 1 1 1 1 1 1 1 1 1 1 1 1 1 1 1 1
1 1 1 1 1 1 0 0 0 0 1 1 0 0 0 0 0 0 0 0 0 0 1 1 1 1 1 1 1 1 1 1 1 1 1 1 1 1 1 1 1 1 1
1 1 1 1 1 1 1 0 0 0 0 0 0 0 0 0 1 1 1 0 0 0 1 1 1 1 1 1 1 1 1 1 1 1 1 1 1 1 1 1 1 1 1
1 1 1 1 1 1 1 1 0 0 0 0 0 0 0 0 1 1 1 1 0 0 0 1 1 1 1 1 1 1 1 1 1 1 1 1 1 1 1 1 1 1 1
1 1 1 1 1 1 1 1 0 0 0 0 0 0 0 0 0 1 1 1 1 1 1 1 1 1 1 1 1 1 1 1 1 1 1 1 1 1 1 1 1 1 1
1 1 1 1 1 1 1 1 0 0 0 0 0 0 0 0 0 0 1 1 1 1 1 1 1 1 1 1 1 1 1 1 1 1 1 1 1 1 1 1 1 1 1
2 2 1 1 1 1 1 1 1 1 1 1 1 1 1 0 0 0 0 0 0 1 1 1 1 1 1 1 1 1 1 1 1 1 1 1 1 1 1 1 1 1 1
2 2 2 1 1 1 1 1 1 1 1 1 1 1 1 1 1 1 0 0 0 0 1 1 1 1 1 1 1 1 1 1 1 1 1 1 1 1 1 1 1 1 1
2 2 2 1 1 1 1 1 1 1 1 1 1 1 1 1 1 1 1 0 0 1 1 1 1 1 1 1 1 1 1 1 1 1 1 1 1 1 1 1 1 1 1
1 1 2 1 1 1 1 1 1 1 1 1 1 1 1 1 1 1 1 1 1 1 1 1 1 1 1 1 1 1 1 1 1 1 1 1 1 1 1 1 1 1 1
1 1 1 1 1 1 1 1 1 1 1 1 1 1 1 1 1 1 1 1 1 1 1 1 1 1 1 1 1 1 1 1 1 1 1 1 1 1 1 1 1 1 1
1 1 1 1 1 1 1 1 1 1 1 1 1 1 1 1 1 1 1 1 1 1 1 1 0 0 0 1 1 1 1 1 1 1 1 1 1 1 1 1 1 1 1
1 1 1 1 1 1 1 1 1 1 1 1 1 1 1 1 1 0 0 0 1 1 1 0 0 0 0 1 1 0 0 0 0 0 0 0 0 0 0 0 0 0 0
1 1 1 1 1 1 1 1 1 1 1 1 1 1 1 1 0 0 0 0 0 0 0 0 0 0 0 1 1 0 0 0 0 0 0 0 0 0 0 0 0 0 0
1 1 1 1 1 1 1 1 1 1 1 1 1 1 0 0 0 0 0 0 0 0 0 1 1 1 1 1 0 0 0 0 0 0 0 0 0 0 0 0 0 0 0
1 1 1 1 1 1 1 1 1 1 1 1 1 1 0 0 0 0 0 0 0 0 1 1 1 1 1 1 1 0 0 0 0 0 0 0 0 0 0 0 0 0 0
2 1 2 2 2 1 1 1 1 1 1 1 1 1 1 1 1 1 1 0 0 0 1 1 1 1 1 1 1 1 1 0 0 0 0 0 0 0 0 0 0 0 0
2 2 3 3 2 1 1 1 1 1 1 1 1 1 1 1 1 1 1 1 1 0 1 1 1 1 1 1 1 1 1 0 0 0 0 0 0 0 0 0 0 0 0
2 3 4 3 2 1 1 1 1 1 1 0 0 0 0 1 1 1 1 1 1 1 0 0 1 1 1 1 1 1 0 0 0 0 0 0 0 0 0 0 0 0 0
3 4 4 3 2 1 1 1 0 0 0 0 0 0 0 0 0 0 0 0 1 1 0 0 0 0 0 0 0 0 0 0 0 0 0 0 0 0 0 0 0 0 0
4 4 3 2 1 1 0 0 0 0 0 0 0 0 0 0 0 0 0 0 0 0 0 0 0 0 0 0 0 0 0 0 0 0 0 0 0 0 0 0 0 0 0
4 4 2 2 1 1 1 0 0 0 0 0 0 0 0 0 0 0 0 0 0 0 0 0 0 0 0 0 0 0 0 0 0 0 0 0 0 0 0 0 0 0 0
4 3 2 1 1 1 1 0 0 0 0 0 0 0 0 0 0 0 1 1 1 0 0 0 0 0 0 0 0 0 0 0 0 0 0 0 0 0 0 0 0 0 0
3 2 1 1 1 1 1 1 0 0 0 0 0 0 0 0 0 0 0 1 1 1 0 0 0 0 0 0 0 0 0 0 0 0 0 0 0 0 0 0 0 0 0
Wind_Speed
1 1 1 1 1 1 1 2 2 2 2 2 3 3 3 3 3 3 3 9 10 9 10 11 12 11 11 12 12 12 12 12 11 11 11 11 11 11 10 11 11 11 10
1 1 1 1 1 1 1 2 2 2 1 1 2 3 3 3 4 4 3 6 10 10 10 12 12 12 11 11 12 12 11 11 10 10 10 10 11 11 10 10 11 11 10
2 1 1 1 1 1 1 1 1 1 1 1 2 2 3 3 4 4 4 3 4 9 10 11 11 11 11 11 11 11 10 10 9 10 9 9 10 10 11 10 10 10 10
2 2 1 1 1 0 0 1 1 1 1 1 1 2 2 2 3 4 3 4 3 3 7 11 11 10 10 10 10 11 10 9 10 9 9 8 9 9 10 10 10 10 10
2 2 1 1 0 0 0 0 1 1 1 1 1 1 1 2 2 3 4 4 4 3 3 6 10 10 10 10 10 10 10 9 9 9 8 8 7 7 7 8 8 9 10
2 2 1 0 0 1 0 0 0 0 0 1 1 1 1 1 1 2 3 3 3 4 3 3 4 6 10 9 9 9 9 10 9 9 9 8 7 7 7 7 7 7 8
2 2 1 0 1 1 1 1 1 1 1 0 1 2 2 1 0 1 1 2 3 3 3 3 2 3 4 8 9 9 9 9 9 9 9 8 7 7 7 7 6 7 7
1 1 1 1 1 1 1 1 1 1 1 0 1 1 2 3 2 1 0 1 2 1 2 3 3 4 3 3 6 10 10 9 9 9 9 8 7 7 7 7 7 7 6
1 1 1 1 1 1 1 1 1 1 1 1 1 2 2 2 2 2 1 1 1 1 2 2 3 3 4 3 4 8 10 9 10 9 9 8 7 7 7 7 8 7 7
1 1 1 1 1 1 1 1 1 1 1 1 1 0 2 3 2 1 2 1 0 1 2 2 2 2 3 3 4 7 9 9 10 10 9 8 8 8 8 8 7 7 7
0 0 0 1 0 0 0 0 1 1 1 1 0 1 0 0 1 2 1 2 1 1 1 1 1 2 2 2 3 6 9 9 9 9 9 9 8 8 8 8 7 6 7
1 1 0 0 0 0 0 1 1 1 1 1 0 0 0 0 1 2 2 1 1 2 1 0 0 1 1 2 4 6 8 8 8 8 9 9 8 8 8 7 7 7 6
1 1 0 0 0 1 1 1 1 1 1 1 1 1 1 1 1 1 2 1 1 1 1 1 0 0 1 1 2 4 5 6 7 7 7 8 8 8 8 7 7 6 6
1 1 0 0 0 0 0 1 1 0 0 0 1 1 1 1 1 1 2 2 1 1 1 1 1 0 1 1 2 3 3 5 5 5 5 6 7 8 8 7 6 5 5
1 1 1 1 1 1 0 1 0 0 0 0 1 1 0 1 0 0 1 2 3 2 1 1 0 1 0 1 1 2 2 5 5 4 4 5 6 8 7 7 6 5 5
1 1 1 1 1 1 1 2 1 1 1 0 0 0 1 1 1 1 1 1 2 3 2 1 0 0 1 1 2 2 2 3 3 4 4 4 5 6 7 6 6 6 5
1 1 1 1 1 1 1 1 1 1 1 1 2 1 1 1 1 1 1 1 1 2 2 0 0 1 2 2 2 2 2 2 1 2 3 3 3 4 5 6 6 6 6
1 1 1 1 1 1 1 1 1 1 1 1 1 1 1 1 1 1 1 1 1 1 3 2 0 1 1 1 1 2 2 1 1 1 2 2 3 3 4 5 6 6 6
1 1 1 1 0 0 0 0 1 0 1 1 1 1 0 1 1 1 1 1 1 1 2 3 1 0 1 1 2 1 1 1 0 1 1 1 2 2 3 4 5 6 5
2 1 1 1 1 1 0 0 1 1 1 1 1 1 1 1 1 1 1 1 1 2 2 2 1 1 0 0 1 1 1 1 0 0 1 1 1 1 2 2 3 5 5
2 1 1 1 1 1 0 1 1 1 1 1 1 1 1 1 1 0 1 1 2 2 2 2 1 1 0 1 1 1 1 0 1 0 1 1 1 0 0 2 3 4 4
1 1 2 2 1 0 1 2 2 1 1 1 0 1 1 2 2 2 2 2 3 3 3 2 2 2 2 2 1 1 1 1 0 1 1 0 1 1 1 1 3 4 5
2 2 2 2 1 0 1 1 2 2 1 0 0 0 1 1 2 1 2 3 1 1 3 4 4 4 3 3 3 2 2 2 2 2 2 1 1 1 2 2 4 5 5
2 2 2 2 2 0 0 1 2 1 1 0 0 1 1 1 1 0 1 1 1 2 2 2 4 4 4 4 4 4 4 2 0 1 2 1 1 2 2 2 4 5 6
2 2 2 2 2 2 1 1 2 1 0 1 1 0 1 1 2 0 1 0 1 3 3 2 3 3 4 4 4 2 2 2 1 2 1 2 1 1 1 2 3 5 5
3 2 2 2 3 2 2 2 2 1 0 1 1 2 2 1 2 1 1 1 1 3 2 2 2 2 1 2 3 4 4 3 2 2 2 2 1 1 1 2 2 2 2
Wind_Direction
181 184 180 192 195 195 198 206 219 216 215 217 214 202 195 198 194 197 199 204 207 207 205 203 205 204 203 205 206 207 208 208 206 203 202 204 204 206 206 205 204 203 200
153 152 177 187 197 197 203 199 208 208 211 208 212 207 201 199 197 199 203 209 209 206 208 208 205 204 204 205 207 208 207 208 204 203 205 206 205 207 208 207 206 204 203
151 146 163 184 231 225 208 199 218 200 213 203 217 224 217 202 199 202 202 204 207 209 208 207 204 204 207 206 206 205 202 201 198 198 200 204 205 207 207 207 205 204 201
143 131 131 204 242 196 158 179 182 170 231 217 232 249 231 209 208 208 203 205 205 209 213 211 208 207 208 209 207 203 201 198 195 194 195 198 200 203 204 204 206 205 202
133 127 141 212 224 106 95 193 96 156 188 243 259 252 235 224 223 215 203 206 201 202 207 215 211 207 209 212 209 205 197 194 193 191 191 191 188 191 196 198 203 204 203
130 128 136 206 143 99 52 59 77 63 159 239 280 300 277 239 222 214 209 201 194 197 197 205 209 209 206 204 197 191 189 187 187 187 188 185 184 188 188 190 192 193 196
126 127 127 145 136 139 167 122 92 61 342 34 52 349 330 311 238 224 199 180 194 196 190 198 199 199 206 201 192 187 189 190 190 190 189 188 188 188 188 189 190 190 191
132 147 142 161 149 130 98 74 78 86 321 81 127 94 357 349 347 347 195 183 186 172 191 204 202 198 193 189 191 190 193 195 194 192 189 187 188 192 190 194 193 193 193
120 115 126 133 140 151 171 173 130 141 203 307 144 146 154 227 296 325 298 200 179 181 201 201 200 196 189 185 190 196 192 194 195 196 194 192 192 193 194 199 199 199 202
92 125 105 99 113 148 167 212 139 144 154 248 318 243 182 170 164 298 323 323 262 191 212 212 194 179 181 181 189 189 191 196 199 201 200 199 196 195 197 201 204 203 204
358 130 115 75 80 125 131 121 116 118 143 166 239 284 289 82 145 160 258 310 332 285 236 215 182 182 180 180 195 198 197 197 199 201 200 199 199 198 195 195 197 200 204
316 335 21 88 139 147 153 171 149 127 128 141 181 122 153 179 215 173 195 230 262 289 313 31 145 183 194 189 195 191 195 195 197 198 199 200 202 197 194 196 201 204 207
299 301 307 321 237 213 182 138 119 116 135 138 204 225 210 220 202 174 162 192 216 303 5 17 326 183 197 193 199 188 190 187 189 192 195 198 200 196 194 198 202 205 206
227 237 222 348 309 189 147 117 110 158 120 194 252 235 234 259 202 171 169 159 138 6 8 306 349 1 207 187 205 192 185 175 176 177 188 193 194 192 194 195 196 199 202
220 180 110 62 19 24 43 119 80 3 66 257 261 274 277 300 41 104 150 160 157 161 245 273 350 328 345 101 143 153 162 167 168 171 178 186 187 187 189 189 192 193 191
211 142 96 72 44 46 55 62 41 27 46 310 219 36 21 12 43 49 97 159 155 157 177 235 239 323 41 73 86 120 146 155 164 166 167 174 181 184 188 190 190 188 187
163 139 148 113 73 59 63 67 40 56 62 20 25 60 50 59 64 47 55 76 92 120 136 207 347 26 60 66 54 67 88 99 131 155 152 152 158 177 182 181 184 186 191
151 140 133 125 117 98 95 88 71 74 88 56 36 79 45 75 60 55 73 82 103 128 134 147 127 37 52 87 97 99 88 93 104 101 140 154 157 167 180 180 180 184 191
129 115 118 131 125 106 110 133 164 153 108 92 110 115 123 91 64 55 87 93 102 105 123 132 145 91 47 69 72 70 68 55 90 97 140 161 169 174 171 182 187 187 193
136 136 125 117 103 75 66 74 79 79 66 55 72 93 91 120 178 186 124 118 113 104 107 113 114 93 68 57 98 112 52 25 4 14 69 94 119 147 174 188 196 200 204
160 155 123 116 109 106 80 94 97 99 91 57 25 19 50 76 65 157 159 164 130 119 120 122 118 95 93 138 183 195 165 139 352 78 92 47 62 54 241 218 218 215 216
171 142 147 139 120 101 96 95 106 96 89 91 34 334 358 20 26 32 66 126 143 151 161 156 164 179 220 211 200 175 153 125 287 264 114 322 131 224 244 213 213 211 212
168 159 174 157 154 119 102 105 97 110 90 92 170 359 348 17 27 32 38 43 44 165 175 176 187 209 208 204 180 182 184 176 209 212 144 232 242 243 251 235 218 222 223
174 179 182 177 161 197 154 154 135 111 90 329 247 173 144 331 339 48 64 20 340 306 253 206 202 216 216 206 190 189 186 166 236 255 161 191 243 247 253 246 234 228 229
185 187 190 179 184 243 240 176 147 120 86 295 293 238 184 239 295 237 103 43 334 315 307 265 236 227 226 222 195 152 152 149 210 260 207 172 220 255 269 259 250 240 239
188 181 196 196 191 216 227 201 176 165 205 281 309 310 289 271 285 297 149 166 279 287 307 335 338 330 262 217 201 185 179 178 187 233 223 171 195 164 287 272 252 248 246